カタログに戻る

DELTA 1 DEB

運用中LEO
NORAD 7135·DEBRIS·🇺🇸 United States

打ち上げ Nov 6, 1973 から Vandenberg Space Force Base

Loading…

次のパス (今後24時間)

TLE

最新Source: Space-Track

元期: Sep 14, 2026, 03:36 UTC

1 07135U 73086CZ  26257.15020988  .00000313  00000-0  19106-2 0  9991
2 07135 102.2377 232.0735 0131024 237.1531 121.6875 12.64283939424855

AllMySatでDELTA 1 DEBをリアルタイム追跡

Download on the App Store